カタログに戻る

YAOGAN-43 03A

運用中軍事VLEO
NORAD 61617·PAYLOAD·🇨🇳 China

打ち上げ Oct 23, 2024 から Xichang Satellite Launch Center

Loading…

次のパス (今後24時間)

TLE

最新Source: Space-Track

元期: Sep 14, 2026, 17:21 UTC

1 61617U 24190A   26257.72334616  .00005810  00000-0  24217-3 0  9994
2 61617  34.9923 354.5789 0004171  64.5240 295.5906 15.23041926105520

AllMySatでYAOGAN-43 03Aをリアルタイム追跡

Download on the App Store